Location: Vojnic
(45.3264°N, 15.6972°E)
Time: 03:20:48
(UTC+01:00)

USA 238 DEB - Pass Details

Date: 04 May 2013
Orbit: 947 x 1266 km, 63.4° (Epoch: 16 March)

Event Time Altitude Azimuth Distance (km) Brightness Sun altitude
Exits shadow 22:33:10 26° 99° (E) 1,819 4.5 -20.9°
Drops below altitude 10° 22:37:35 10° 57° (ENE) 2,785 5.9 -21.4°
Enters shadow 23:55:56 -41° 220° (SW) 9,760 8.6 -27.3°
Maximum altitude 00:22:41 65° 312° (NW) 1,086 3.8 -28.3°
